Theta_e
308 308 307 307 307 306 307 307 308 308 310 311 311 311 310 308 305 304 306 308 311 310 312 322 325 324 318 321 328 326 331 331 329 328 328 326 327 326 326 329 327 325 328 328 326
308 308 308 308 308 307 306 306 307 308 308 309 310 311 310 309 308 309 307 307 310 309 319 321 321 324 326 326 327 330 332 331 329 328 328 327 327 328 328 328 329 328 328 325 325
307 307 308 308 308 308 308 308 307 306 308 308 309 309 310 309 306 306 316 314 309 308 315 318 317 322 324 326 328 329 331 330 329 328 327 327 328 328 328 329 329 329 329 329 329
306 307 307 306 307 307 307 308 308 308 306 307 307 308 310 308 310 315 311 307 313 314 313 314 319 323 322 326 327 328 328 329 329 328 328 328 328 328 329 330 329 329 329 328 329
305 306 306 306 307 307 307 307 307 307 307 305 307 308 310 311 308 313 316 308 309 319 312 315 321 320 321 323 324 328 327 328 328 328 328 328 328 329 328 328 327 328 329 329 330
304 305 305 306 306 307 307 306 306 306 306 307 306 308 309 309 307 308 308 307 307 314 314 314 319 320 320 322 324 324 326 326 327 328 328 328 328 328 328 328 328 329 329 329 329
304 304 305 306 306 306 306 306 305 305 306 308 308 307 308 308 307 308 308 307 307 311 312 312 314 319 321 321 322 324 327 327 327 327 327 324 324 324 325 325 326 326 327 328 328
304 304 305 305 305 306 305 305 305 305 307 308 307 306 307 307 308 309 309 310 309 308 308 311 313 314 316 317 317 319 319 320 320 320 320 320 323 323 324 325 326 327 327 326 327
304 304 305 305 305 305 304 303 302 305 308 307 306 306 307 306 308 309 310 310 310 309 308 308 315 316 315 317 319 319 320 320 320 319 319 322 322 321 322 323 324 325 325 326 326
305 305 304 304 305 305 304 303 305 307 306 306 306 306 305 307 308 308 309 310 310 308 308 308 314 315 316 317 320 320 319 319 320 320 318 319 321 322 322 322 324 325 326 326 326
305 304 304 304 304 304 303 303 306 308 305 306 306 305 305 306 306 306 309 310 310 308 310 309 312 316 314 316 318 319 321 322 322 319 318 318 319 322 322 323 324 324 325 326 328
304 304 304 304 304 303 302 305 304 303 306 305 306 306 306 306 308 307 307 308 309 310 310 310 313 314 315 314 315 317 319 320 318 317 318 319 320 322 322 322 323 325 326 327 328
304 304 304 303 303 303 302 303 303 304 306 307 307 307 307 307 308 308 309 308 308 309 310 312 314 312 313 314 315 316 316 318 318 318 318 319 320 320 321 323 323 323 325 326 327
303 304 303 304 303 302 303 303 303 304 309 306 306 308 307 308 309 308 307 308 309 309 310 311 312 312 312 314 316 317 316 316 317 318 319 321 322 322 321 322 322 323 326 327 327
303 303 303 303 303 303 303 303 303 304 304 303 308 308 306 308 308 309 308 308 311 309 310 311 311 312 313 314 316 316 316 317 318 320 321 321 322 321 322 322 323 323 324 327 324
303 303 305 303 302 302 302 302 304 308 305 305 306 306 305 307 308 310 310 308 310 312 310 311 311 311 313 314 316 317 318 320 320 320 321 320 322 322 322 322 322 324 326 325 326
301 301 302 303 303 302 302 304 307 306 303 306 306 305 304 306 308 309 311 310 308 314 314 310 310 311 311 314 316 319 320 319 319 321 321 320 322 322 321 321 322 324 327 326 328
301 301 302 302 302 302 303 306 305 302 304 305 305 304 302 306 307 308 309 312 311 313 315 313 312 311 312 313 316 320 319 320 323 323 321 322 322 321 323 323 322 324 326 326 328
301 301 302 303 303 302 304 305 301 303 305 305 304 304 304 305 305 307 309 315 312 311 314 316 315 312 313 313 315 318 320 319 318 323 324 325 325 325 325 325 327 326 324 327 329
301 301 303 304 303 304 305 303 304 304 304 304 304 303 304 304 306 307 308 313 312 311 310 314 317 314 312 313 313 314 316 318 318 318 319 320 325 327 328 327 327 327 327 328 328
300 303 304 303 301 304 306 304 304 304 304 305 305 305 305 304 308 309 308 308 310 310 311 313 314 316 313 314 314 314 318 317 318 318 319 318 319 327 329 329 328 328 328 328 329
301 303 301 303 305 303 305 304 304 305 304 304 305 306 306 306 306 308 309 309 308 308 313 314 317 316 316 315 315 315 316 318 317 320 318 322 321 325 328 327 326 326 327 327 328
300 300 300 303 304 303 301 302 303 304 304 305 305 304 304 305 308 308 309 308 308 308 311 314 316 317 317 316 315 316 316 318 320 321 319 318 320 324 328 327 326 327 326 327 328
302 303 302 304 302 302 302 302 303 303 304 304 305 305 306 306 306 307 310 309 308 308 311 311 312 317 317 317 317 316 316 316 318 319 320 320 318 321 322 326 327 327 328 328 329
300 301 302 303 303 303 301 301 303 304 304 304 305 306 306 306 306 309 309 310 310 309 310 311 314 313 314 314 316 316 315 315 317 317 318 320 320 319 324 323 326 328 328 329 329
302 303 302 303 302 302 302 302 303 303 303 303 305 305 304 304 305 306 307 307 310 311 309 310 314 313 315 314 315 317 317 316 315 316 316 317 318 319 320 323 326 329 328 329 330
301 301 302 302 302 303 304 303 304 305 304 304 305 306 305 304 304 305 305 305 306 309 311 312 312 314 317 315 317 317 318 317 316 316 316 317 319 318 320 324 328 330 329 330 330
Wind_Speed
14 15 16 15 14 13 15 15 16 16 17 17 18 19 20 22 24 16 13 14 8 9 10 11 8 8 10 8 6 3 6 13 15 12 9 2 5 2 5 8 6 3 13 14 9
15 16 16 17 18 17 15 15 14 15 14 14 15 18 19 19 18 12 31 29 28 21 18 17 9 12 7 9 7 9 12 18 16 15 13 7 8 8 8 15 21 17 16 14 12
16 15 16 18 19 18 18 18 16 15 15 15 15 15 16 13 6 6 8 5 18 27 22 16 14 16 10 5 11 10 20 26 21 19 9 19 18 13 16 23 24 19 21 23 21
18 18 18 18 18 18 20 20 18 17 16 14 14 13 14 3 9 11 7 11 18 19 21 17 13 12 11 16 17 16 23 24 27 18 14 22 20 19 20 31 24 24 21 20 22
20 20 20 21 20 20 20 19 19 19 18 16 13 11 6 5 9 10 14 15 8 9 21 19 19 19 16 15 19 22 22 21 21 21 21 20 22 19 26 31 23 23 21 20 20
21 21 22 22 22 21 21 23 22 22 21 17 13 10 6 14 11 18 22 22 6 8 12 17 9 12 11 12 21 12 22 24 19 18 24 21 26 18 26 27 21 21 22 22 20
21 22 23 24 23 22 23 24 24 24 21 17 13 9 13 23 13 13 12 16 7 7 12 18 24 7 6 9 16 16 17 14 15 16 15 11 24 19 31 21 20 24 21 21 20
22 24 24 24 24 24 25 27 28 26 21 17 12 8 9 12 14 22 20 20 23 23 13 13 18 18 9 4 1 10 10 17 13 19 11 14 28 19 19 13 17 18 17 17 19
24 26 26 24 24 25 27 30 31 15 9 6 4 7 10 7 8 15 17 19 12 16 14 6 12 11 8 14 9 10 14 15 10 9 4 15 21 16 10 8 17 19 19 19 19
25 27 27 27 26 26 28 31 7 5 5 5 3 4 7 2 6 16 13 17 11 11 8 9 10 12 15 15 23 19 15 16 17 9 15 22 25 17 18 12 19 18 18 18 20
25 27 26 24 24 26 30 8 2 2 3 7 9 8 20 15 17 9 5 3 13 16 16 19 12 28 30 24 19 20 22 28 21 13 15 18 18 13 17 18 21 19 19 20 19
27 27 25 24 23 24 7 3 5 3 11 15 23 23 32 18 11 15 8 8 10 20 21 13 29 26 22 23 22 23 24 21 14 10 12 16 20 15 18 23 21 19 19 20 17
27 25 24 24 24 3 9 3 2 9 5 15 9 9 8 7 11 23 7 8 12 19 29 28 39 18 20 22 24 26 26 24 20 15 15 16 23 20 20 12 16 17 19 19 16
26 24 25 24 7 11 5 1 11 3 4 6 3 4 1 4 7 17 17 14 12 22 24 22 23 25 26 29 22 26 24 20 19 11 15 3 16 18 20 22 21 21 16 16 12
25 25 24 17 13 5 3 10 13 4 5 2 3 2 13 4 13 5 20 18 20 11 18 19 21 21 26 24 26 17 13 16 17 17 17 17 11 10 13 21 24 20 18 10 5
28 27 23 11 5 10 8 15 1 3 7 3 2 9 18 7 12 9 7 19 17 20 21 19 11 26 28 19 21 13 8 10 6 7 12 15 11 13 15 19 16 13 9 2 2
32 30 17 6 3 2 10 2 3 5 6 2 6 12 15 12 10 13 16 10 15 18 19 17 19 6 15 17 17 20 14 6 7 7 9 14 12 18 15 19 18 18 6 1 4
32 22 6 2 6 4 3 1 5 3 7 12 12 16 14 11 6 11 18 8 17 15 11 14 12 21 20 18 14 25 20 8 7 6 9 5 9 7 17 18 22 16 9 4 8
30 8 5 10 6 6 2 3 3 3 6 11 15 9 5 8 10 7 8 11 5 12 7 12 14 14 22 14 21 19 19 15 5 1 5 4 6 10 17 14 11 10 5 7 10
9 5 7 9 4 2 1 4 4 6 10 7 7 6 10 9 10 3 4 12 12 13 12 7 11 13 20 22 24 18 19 10 9 9 9 6 5 8 6 9 8 8 8 9 11
6 2 1 8 6 1 1 3 6 10 9 4 6 8 9 11 8 2 3 10 12 18 17 10 7 14 18 21 22 11 18 7 10 6 5 3 5 9 14 8 7 2 9 12 12
4 2 6 9 1 1 3 8 8 9 8 7 7 9 8 11 8 3 4 4 6 9 10 7 6 6 24 13 18 20 21 19 9 10 10 2 5 1 8 7 7 2 8 13 12
5 3 4 4 3 6 8 8 5 7 8 5 5 4 10 8 5 5 2 3 3 5 5 8 5 10 8 7 15 25 21 17 6 5 16 10 4 3 4 4 1 4 10 13 14
2 4 3 3 1 4 7 6 6 8 10 5 10 8 9 7 5 5 6 2 4 3 7 8 4 11 11 9 2 25 24 20 15 9 9 17 12 19 14 6 6 5 9 13 15
3 2 1 4 4 9 5 6 10 7 4 6 2 3 8 5 11 3 5 7 1 2 6 6 3 6 15 11 8 15 20 24 22 17 11 7 22 19 14 10 4 7 10 13 16
2 3 2 5 8 9 4 4 9 8 4 10 6 10 12 11 13 15 12 3 4 2 4 6 2 8 9 14 11 8 6 15 25 23 21 16 18 13 14 9 3 9 14 15 16
1 3 2 5 4 5 3 5 8 13 9 11 12 14 15 14 11 10 13 13 13 7 3 1 4 4 5 5 6 10 14 9 12 20 20 21 26 15 16 14 8 10 17 18 18
Wind_Direction
2 360 354 346 338 335 335 332 331 325 325 326 326 325 324 326 314 305 259 245 262 273 229 168 189 186 164 169 145 138 228 238 237 226 251 253 256 39 327 290 263 261 290 299 298
355 353 348 345 346 344 335 331 331 329 323 318 315 319 327 334 319 280 273 274 265 251 203 174 179 189 179 184 176 199 227 233 235 239 251 274 291 305 289 292 278 282 278 272 283
354 352 346 341 336 334 336 337 332 327 326 323 313 321 328 334 280 239 40 304 253 242 212 202 206 190 205 199 183 206 231 234 257 249 263 281 278 287 289 289 281 292 296 302 298
352 349 343 337 334 332 331 328 325 325 322 318 322 319 328 310 246 155 107 16 7 208 211 218 193 206 205 209 211 237 230 239 250 259 263 264 288 281 284 268 281 287 287 284 286
348 346 342 339 335 331 326 321 320 319 320 321 319 318 328 236 241 203 249 296 3 155 201 201 194 205 205 211 215 229 242 236 248 266 263 272 266 270 284 281 287 277 277 271 275
344 342 340 338 333 329 325 323 317 317 313 315 310 310 255 250 239 253 259 279 259 189 189 206 216 225 252 225 209 233 239 245 247 255 264 269 272 269 264 268 285 280 273 276 272
342 342 339 336 333 329 324 323 317 310 303 294 293 286 254 248 261 280 273 269 232 222 231 232 227 242 243 240 238 243 256 243 241 241 253 286 271 246 259 279 271 273 275 276 276
340 340 337 334 332 328 327 320 318 310 295 284 269 254 256 260 283 273 265 270 258 242 247 240 224 232 233 291 161 223 230 244 234 236 248 217 266 264 271 269 275 274 279 277 275
340 339 335 332 330 328 327 320 322 314 290 220 209 216 266 287 269 279 254 249 246 216 215 238 207 219 207 230 243 213 241 226 247 207 218 200 268 262 273 289 283 279 281 279 280
335 336 334 333 330 330 327 325 348 58 76 130 197 248 257 297 275 307 270 236 228 179 179 207 201 214 214 201 220 227 236 239 243 229 227 249 256 276 288 297 278 282 282 277 274
333 335 335 334 331 330 327 351 341 194 347 261 259 251 287 271 283 261 309 224 214 194 189 188 200 221 212 217 239 248 251 249 252 232 243 256 275 283 295 291 284 286 285 278 274
333 334 333 333 331 326 5 22 74 332 300 264 249 251 256 270 298 271 245 212 194 205 195 183 222 219 221 217 224 231 245 246 251 252 262 279 278 287 285 279 280 280 284 277 282
335 335 334 331 330 329 319 285 333 336 258 292 249 252 249 221 240 276 214 207 217 208 195 198 226 205 210 213 215 225 233 238 246 267 271 283 281 278 277 273 277 278 272 276 270
337 333 335 333 329 334 311 329 330 304 289 273 246 251 277 223 239 245 223 212 218 219 204 226 220 197 206 219 207 232 225 247 250 254 262 317 288 279 283 284 281 283 275 268 268
336 331 330 327 293 276 293 312 326 171 297 77 130 165 319 265 301 317 218 216 228 204 195 215 195 197 203 203 206 239 226 225 236 245 272 258 266 280 285 281 275 274 268 279 316
336 330 325 321 278 268 294 319 268 210 245 306 71 347 340 356 341 314 261 228 219 240 227 221 210 196 213 199 200 194 201 206 223 246 252 258 248 278 268 257 274 265 253 7 21
337 332 325 274 277 262 316 304 205 236 336 20 345 333 325 327 348 347 323 202 217 202 224 214 224 199 192 185 192 196 185 207 224 217 249 243 234 246 261 250 259 262 281 38 130
336 336 0 311 302 275 291 172 229 270 276 332 341 328 307 4 356 340 335 249 217 241 230 209 196 207 191 197 179 190 187 177 205 217 250 148 217 253 245 260 244 249 278 169 151
338 357 15 336 336 180 239 207 278 281 353 331 325 314 314 340 342 350 347 331 15 232 273 209 225 183 186 187 180 183 202 203 254 283 277 171 261 278 247 246 235 238 218 176 160
349 341 10 27 63 278 271 290 290 325 331 318 294 263 293 318 323 38 330 32 355 3 353 280 224 198 185 183 201 201 187 185 206 221 236 238 280 257 313 243 205 193 193 170 156
14 11 352 4 51 318 336 296 300 300 320 296 293 295 286 296 323 355 239 327 3 342 336 274 277 174 167 201 187 178 187 187 190 215 207 279 246 213 252 263 270 346 153 157 156
351 1 346 359 334 149 340 324 315 298 325 297 280 281 273 313 301 277 215 174 34 353 325 304 298 250 207 195 196 199 187 183 185 193 220 272 256 240 246 293 309 249 141 140 160
349 301 348 352 37 352 332 312 279 294 324 319 295 318 314 303 304 337 220 150 137 360 338 340 238 224 157 200 204 200 199 190 172 161 198 198 233 206 280 235 55 119 139 147 163
350 346 343 27 24 329 323 298 305 296 297 305 281 313 324 311 309 284 285 198 192 293 322 319 267 254 211 201 67 201 197 196 201 203 194 215 223 264 275 333 49 119 149 164 170
6 30 10 316 329 317 302 306 304 317 309 312 269 339 353 309 321 39 5 320 199 51 347 357 269 293 268 274 300 174 200 204 207 216 221 206 227 240 265 304 11 151 159 176 168
355 332 310 286 297 303 298 300 288 307 298 309 272 321 323 294 288 294 302 352 317 308 349 341 8 340 257 256 256 255 198 214 209 221 237 250 257 240 283 307 222 176 171 191 176
291 268 262 284 279 288 279 285 289 300 280 260 296 309 298 291 292 280 283 265 257 265 292 285 339 331 209 313 253 244 237 212 210 224 221 225 241 260 267 277 274 193 184 198 179